Location: Amsterdam
(30.7274°N, 84.4357°W)
Time: 06:52:42
(UTC+00:00)

Transit 4A - All Passes

Search period start: 18 February 2026 00:00
Search period end: 28 February 2026 00:00
Orbit: 865 x 976 km, 66.8° (Epoch: 17 February)

Date Brightness Start Highest point End Pass type
(mag) Time Alt. Az. Time Alt. Az. Time Alt. Az.
18 Feb - 07:19:31 10° SE 07:22:22 14° ESE 07:25:13 10° ENE night (unlit)
18 Feb - 09:02:14 10° SW 09:07:58 63° WNW 09:13:52 10° NNE visible
18 Feb - 18:10:07 10° NNW 18:16:15 52° ENE 18:22:26 10° SE daylight
18 Feb - 19:57:40 10° WNW 20:02:08 20° WSW 20:06:38 10° SSW daylight
19 Feb - 07:26:24 10° SSE 07:30:51 23° ESE 07:35:21 10° NE night (unlit)
19 Feb - 09:11:22 10° SW 09:16:47 40° WNW 09:22:22 10° N visible
19 Feb - 16:35:49 10° NNE 16:37:50 11° NE 16:39:51 10° ENE daylight
19 Feb - 18:18:43 10° NNW 18:25:03 79° ENE 18:31:26 10° SSE daylight
19 Feb - 20:08:14 10° W 20:10:37 12° WSW 20:13:01 10° SW daylight
20 Feb - 07:34:08 10° S 07:39:24 37° ESE 07:44:46 10° NE night (unlit)
20 Feb - 09:20:52 10° WSW 09:25:43 26° NW 09:30:39 10° N visible
20 Feb - 16:42:54 10° NNE 16:46:58 18° NE 16:51:04 10° E daylight
20 Feb - 18:27:30 10° NNW 18:33:46 69° WSW 18:40:06 10° SSE daylight
21 Feb - 07:42:20 10° S 07:48:01 59° ESE 07:53:50 10° NNE visible
21 Feb - 09:30:53 10° W 09:34:43 18° NW 09:38:37 10° N visible
21 Feb - 16:50:50 10° N 16:56:00 26° NE 17:01:12 10° ESE daylight
21 Feb - 18:36:29 10° NW 18:42:26 45° WSW 18:48:26 10° S daylight
22 Feb - 07:50:53 10° SSW 07:56:41 87° WNW 08:02:40 10° NNE visible
22 Feb - 09:41:56 10° WNW 09:43:50 11° NW 09:45:46 10° NNW visible
22 Feb - 16:59:05 10° N 17:04:56 38° ENE 17:10:48 10° SE daylight
22 Feb - 18:45:44 10° NW 18:51:02 29° WSW 18:56:22 10° SSW daylight
23 Feb - 06:16:24 10° SE 06:19:47 16° ESE 06:23:11 10° ENE night (unlit)
23 Feb - 07:59:46 10° SW 08:05:28 56° WNW 08:11:19 10° NNE visible
23 Feb - 17:07:33 10° NNW 17:13:47 58° ENE 17:20:03 10° SE daylight
23 Feb - 18:55:27 10° WNW 18:59:34 18° WSW 19:03:42 10° SW daylight
24 Feb - 06:23:34 10° SSE 06:28:17 26° ESE 06:33:04 10° NE night (unlit)
24 Feb - 08:09:00 10° SW 08:14:19 36° WNW 08:19:47 10° N visible
24 Feb - 15:32:43 10° NNE 15:35:26 13° NE 15:38:10 10° ENE daylight
24 Feb - 17:16:13 10° NNW 17:22:33 87° ENE 17:28:57 10° SSE daylight
24 Feb - 19:06:48 10° W 19:08:04 11° WSW 19:09:19 10° WSW daylight
25 Feb - 06:31:26 10° S 06:36:51 41° ESE 06:42:22 10° NE night (unlit)
25 Feb - 08:18:36 10° WSW 08:23:15 24° NW 08:28:00 10° N visible
25 Feb - 15:40:08 10° N 15:44:33 19° NE 15:48:58 10° E daylight
25 Feb - 17:25:02 10° NNW 17:31:16 62° WSW 17:37:32 10° S daylight
26 Feb - 06:39:44 10° SSW 06:45:28 67° ESE 06:51:22 10° NNE night (unlit)
26 Feb - 08:28:45 10° W 08:32:17 16° NW 08:35:52 10° NNW visible
26 Feb - 15:48:11 10° N 15:53:33 28° ENE 15:58:57 10° ESE daylight
26 Feb - 17:34:03 10° NW 17:39:54 40° WSW 17:45:47 10° S daylight
27 Feb - 05:07:55 10° ESE 05:08:44 10° ESE 05:09:33 10° E night (unlit)
27 Feb - 06:48:22 10° SSW 06:54:11 79° WNW 07:00:09 10° NNE night (unlit)
27 Feb - 08:40:35 10° NW 08:41:25 10° NW 08:42:15 10° NW visible
27 Feb - 15:56:30 10° N 16:02:28 42° ENE 16:08:28 10° SE daylight
27 Feb - 17:43:24 10° NW 17:48:29 26° WSW 17:53:36 10° SSW daylight
